Humidity-temperature Sensor

Selected Measurement Type: Air Temperature

 
Air Temperature [°C]     6 entries per hour
Showing data from 7/30/2020 (00:00:00 Z) to 7/29/2020 (00:01:00 Z)
Previous Next [ Day | 3-Days | 7-Days ]
First Last
Prev [ Day | 3-Days | 7-Days ] Next
First Last

Start Time:     :
End Time:     :     
Time (in GMT) :00 :50 :40 :30 :20 :10
Previous Next [ Day | 3-Days | 7-Days ]
First Last
Prev [ Day | 3-Days | 7-Days ] Next
First Last


123 => good data
MM => data is determined as missing
-- => data not received/configured
Back to Top Back to Top
7/30/2020 00:00 to 23:10 24.67 24.75 24.70 24.65 24.66 24.64
7/29/2020 23:00 to 22:10 24.50 24.75 24.53 24.70 24.83 24.71
7/29/2020 22:00 to 21:10 24.70 24.60 24.70 24.70 24.73 24.71
7/29/2020 21:00 to 20:10 24.68 24.84 24.67 24.75 24.55 24.87
7/29/2020 20:00 to 19:10 24.86 25.05 25.02 24.92 24.70 24.78
7/29/2020 19:00 to 18:10 24.78 24.83 24.93 24.88 24.82 24.89
7/29/2020 18:00 to 17:10 24.64 24.70 24.71 24.72 24.51 24.36
7/29/2020 17:00 to 16:10 24.77 24.68 24.75 24.73 24.58 24.57
7/29/2020 16:00 to 15:10 24.46 24.38 24.14 23.66 23.19 24.20
7/29/2020 15:00 to 14:10 24.31 24.21 24.38 23.54 22.66 22.64
7/29/2020 14:00 to 13:10 23.61 24.54 24.45 24.54 24.64 24.56
7/29/2020 13:00 to 12:10 24.39 24.47 24.45 24.39 24.45 24.35
7/29/2020 12:00 to 11:10 24.22 23.68 23.76 23.77 23.94 24.11
7/29/2020 11:00 to 10:10 24.13 24.06 24.32 24.39 24.33 24.32
7/29/2020 10:00 to 9:10 24.29 23.95 23.84 23.78 23.39 23.04
7/29/2020 09:00 to 8:10 23.17 23.26 24.06 24.46 24.26 24.38
7/29/2020 08:00 to 7:10 24.54 24.39 24.40 24.61 24.65 24.67
7/29/2020 07:00 to 6:10 24.51 24.55 24.53 24.44 24.15 24.61
7/29/2020 06:00 to 5:10 24.58 24.62 24.67 24.66 24.81 24.69
7/29/2020 05:00 to 4:10 24.60 24.69 24.88 24.74 24.72 24.66
7/29/2020 04:00 to 3:10 24.63 24.89 24.86 24.76 24.77 24.67
7/29/2020 03:00 to 2:10 24.56 24.72 24.67 24.59 24.73 24.85
7/29/2020 02:00 to 1:10 24.67 24.76 24.74 24.82 24.80 24.75
7/29/2020 01:00 to 0:10 24.96 24.93 25.07 24.93 24.93 24.91